Location: Unspecified
(41.9031°N, 12.4386°E)
Time: 05:58:15
(UTC+02:00)

ISS - Pass Details

Date: 01 April 2020
Orbit: 417 x 423 km, 51.6° (Epoch: 29 March)

Event Time Altitude Azimuth Distance (km) Brightness Sun altitude
Rises 20:58:37 0° 308° (NW) 2,361 1.6 -15.6°
Reaches altitude 10° 21:00:49 10° 317° (NW) 1,496 0.1 -16.0°
Maximum altitude 21:03:58 36° 26° (NNE) 675 -2.8 -16.6°
Enters shadow 21:04:47 31° 60° (ENE) 760 -2.8 -16.7°
